Simultaneous Nadir Overpasses (SNOs) Predictions

Prediction of SNOs between GOES-15 and TERRA Satellite Orbit:

Table of predicted SNOs for the next 14.0 days since TLE Epoch: 3/2/2024
Index Date Time (GOES-15) GOES-15 Lat,Lon TERRA Lat,Lon Distance(km) Time Diff (sec)
1 03/02/2024 05:49:48 -0.00, 61.30 0.14, 60.55 84.62 80
2 03/04/2024 05:35:30 -0.00, 61.29 -0.72, 64.64 381.40 80
3 03/04/2024 17:55:40 0.01, 61.26 -0.31, 59.74 172.59 80
4 03/06/2024 17:36:02 0.00, 61.26 0.57, 63.83 292.51 80
5 03/07/2024 05:56:04 -0.01, 61.29 0.45, 58.96 264.82 80
6 03/09/2024 05:41:45 -0.01, 61.29 -0.38, 63.06 200.50 80
7 03/09/2024 18:01:55 0.01, 61.26 -0.62, 58.15 352.65 80
8 03/11/2024 17:42:16 0.00, 61.26 0.24, 62.25 112.53 80
9 03/12/2024 06:02:17 -0.01, 61.30 0.84, 57.39 445.78 80
10 03/14/2024 05:47:58 -0.01, 61.31 -0.04, 61.48 19.12 80
